Location: Pine Mountain Observatory
(43.7910°N, 120.9377°W)
Time: 08:54:20
(UTC-07:00)

OTV 5 (USA 277) - Visible Passes

Search period start: 18 October 2019 00:00
Search period end: 28 October 2019 00:00
Orbit: 310 x 324 km, 54.5° (Epoch: 08 October)

Date Brightness Start Highest point End Pass type
(mag) Time Alt. Az. Time Alt. Az. Time Alt. Az.
18 Oct ? 05:10:32 17° NE 05:10:32 17° NE 05:11:45 10° ENE visible
18 Oct ? 06:41:26 10° WNW 06:44:04 45° SW 06:46:41 10° SSE visible
19 Oct ? 05:25:04 31° ENE 05:25:04 31° ENE 05:26:55 10° ESE visible
20 Oct ? 05:39:44 41° SE 05:39:44 41° SE 05:41:39 10° SE visible
21 Oct ? 05:54:32 20° S 05:54:32 20° S 05:55:46 10° SSE visible
27 Oct ? 18:58:04 10° SE 18:58:46 11° SE 18:58:46 11° SE visible
